Regional Weather Roundup
Issued by NWS

Home | Current Version | Previous Version | Graphics & Text | Print | Product List | Glossary On
Versions: 1 2 3 4 5 6 7 8 9 10 11 12 13 14 15 16 17 18 19 20 21 22 23 24 25 26 27 28 29 30 31 32 33 34 35 36 37 38 39 40 41 42 43 44 45 46 47 48 49 50
000
ASUS43 KLOT 260706
RWRIL

ILLINOIS REGIONAL WEATHER ROUNDUP
NATIONAL WEATHER SERVICE CHICAGO/ROMEOVILLE IL
200 AM CDT SUN OCT 26 2014

NOTE: "FAIR" INDICATES FEW OR NO CLOUDS BELOW 12,000 FEET WITH NO
SIGNIFICANT WEATHER AND/OR OBSTRUCTIONS TO VISIBILITY.

* THESE STATIONS ARE NOT UNDER NWS QUALITY CONTROL. THEY ALSO MAY NOT
  REPORT WEATHER SUCH AS PRECIPITATION OR FOG.

ILZ001-002-007-009-015-016-024-260800-
NORTHWEST ILLINOIS

CITY           SKY/WX    TMP DP  RH WIND       PRES   REMARKS
MOLINE         CLEAR     41  36  82 CALM      30.04S
STERLING*      CLEAR     43  32  65 W6        30.04R
SAVANNA*       CLEAR     40  35  80 CALM      30.04S
$$

ILZ003-004-008-010-011-017-018-260800-
NORTH CENTRAL ILLINOIS

CITY           SKY/WX    TMP DP  RH WIND       PRES   REMARKS
ROCKFORD       CLEAR     46  28  49 NW5       30.04R
FREEPORT*      CLEAR     42  30  63 W6        30.05R
ROCHELLE*      CLEAR     37  32  81 W3        30.03R
DE KALB*       CLEAR     42  30  62 NW6       30.01S
PERU*          CLEAR     42  34  72 NW7       30.03S
$$

ILZ005-006-012>014-019>023-260800-
NORTHEAST ILLINOIS

CITY           SKY/WX    TMP DP  RH WIND       PRES   REMARKS
CHICAGO-OHARE  CLEAR     50  29  44 W9        29.98R
CHICAGO-MIDWAY CLEAR     52  30  43 NW7       29.99R
AURORA         CLEAR     37  31  78 NW6       30.01S WCI  32
LANSING*       CLEAR     42  32  68 CALM      29.99R
JOLIET*        CLEAR     46  32  57 CALM      30.00S
WAUKEGAN       CLEAR     49  28  44 W6        29.97R
DUPAGE AIRPORT CLEAR     49  29  46 NW9       29.99S
KANKAKEE*      CLEAR     43  37  79 W3        30.01S
WHEELING       CLEAR     53  27  36 NW9       30.00R
MORRIS*        CLEAR     40  34  78 W5        30.00S
ROMEOVILLE*    CLEAR     42  33  70 W5        30.00S
NORTHERLY ISL    N/A     56  27  33 W13         N/A
$$

LMZ740>746-260800-
SOUTHERN LAKE MICHIGAN

STATION/POSITION SKY/WX   TEMP    WIND        PRES    VSBY  WAVE
                          AIR SEA DIR/SP/G                  HT/PER
                          (F)     (DEG/KT/KT) (MB)    (MI)  (FT/S)
SOUTHERN BUOY              55 54  310/ 16/ 19 1013.9R         3/ 5
WAUKEGAN HARBOR            53     300/  8/ 16   N/A
HARRISON CRIB              57     290/ 16/ 20   N/A
BURNHAM HARBOR             56     270/ 10/ 12   N/A
CALUMET HARBOR             53     280/  4/  9 1014.1R
MICHIGAN CITY              56     280/ 17/ 19   N/A
$$

ILZ025>027-034>036-040-047-049-050-058-095>099-260800-
WEST-CENTRAL ILLINOIS

CITY           SKY/WX    TMP DP  RH WIND       PRES   REMARKS
QUINCY         CLEAR     50  38  63 NE8       30.03F
GALESBURG*     CLEAR     40  36  86 CALM      30.04S
MACOMB*        CLEAR     48  37  64 NW6       30.07S
JACKSONVILLE*  CLEAR     52  41  65 N3        30.03F
PITTSFIELD*    CLEAR     57  40  52 N5        30.04F
$$

ILZ028>032-037-038-041>044-048-051>054-059>061-260800-
CENTRAL ILLINOIS

CITY           SKY/WX    TMP DP  RH WIND       PRES   REMARKS
PONTIAC        CLEAR     45  37  75 NW6       30.03R
BLOOMINGTON    CLEAR     53  34  48 NW8       30.04S
DECATUR        CLEAR     55  37  50 N12       30.03S
PEORIA         CLEAR     48  37  65 CALM      30.04R
LACON*         CLEAR     42  35  76 CALM      30.03S
LINCOLN*       CLEAR     52  39  62 NW5       30.02S
SPRINGFIELD    CLEAR     55  38  52 N8        30.04S
TAYLORVILLE    CLEAR     48  41  76 N7        30.03S
$$

ILZ033-039-045-046-055>057-062-063-260800-
EAST-CENTRAL ILLINOIS

CITY           SKY/WX    TMP DP  RH WIND       PRES   REMARKS
CHAMPAIGN      CLEAR     45  39  79 NW5       30.02S
DANVILLE*      CLEAR     49  36  59 NW8       29.99R
RANTOUL*       CLEAR     50  38  64 NW8       30.02R
MATTOON        CLEAR     49  40  71 NW8       30.02R
PARIS*         CLEAR     49  40  71 NW5       30.02S
$$

ILZ079-100>102-260800-
SOUTHWEST ILLINOIS

CITY           SKY/WX    TMP DP  RH WIND       PRES   REMARKS
ALTON          CLEAR     56  46  70 CALM      30.03S
BELLEVILLE     CLEAR     54  52  93 N5        30.01S
CAHOKIA*       CLEAR     50  50 100 CALM      30.02S FOG
SPARTA*        CLEAR     57  53  88 CALM      30.03R
$$

ILZ064>066-069>071-074>076-080>082-084>086-088>090-092>094-260800-
SOUTH-CENTRAL ILLINOIS

CITY           SKY/WX    TMP DP  RH WIND       PRES   REMARKS
CARBONDALE     CLEAR     52  50  93 CALM      30.01R
CAIRO*         FOG       55  53  92 CALM      30.00S VSB 1/4
EFFINGHAM*     CLEAR     55  38  52 CALM      30.02R
MARION         CLEAR     55  54  94 CALM      30.02R FOG
MT. VERNON     CLEAR     48  45  87 CALM      30.02R
CENTRALIA*     CLEAR     49  47  91 CALM      30.02R
SALEM*         CLEAR     57  49  75 N6        30.03R
METROPOLIS*    FOG       53  53 100 CALM      29.99F VSB 1
$$

ILZ067-068-072-073-078-083-087-091-260800-
SOUTHEAST ILLINOIS

CITY           SKY/WX    TMP DP  RH WIND       PRES   REMARKS
LAWRENCEVILLE  CLEAR     55  47  74 NW5       30.00S HAZE
FLORA*         CLEAR     58  46  66 NW3       30.02S
FAIRFIELD*     CLEAR     57  51  79 N5        30.01R
HARRISBURG*    CLEAR     51  51 100 CALM      30.02R FOG
ROBINSON*      CLEAR     53  46  75 CALM      30.01S
CARMI*         CLEAR     53  52  99 N6        30.00S
$$

ABBREVIATIONS USED IN REMARKS
   TC - TEMPERATURE IN CELSIUS
  WCI - WIND CHILL INDEX
   HX - HEAT INDEX
  VSB - VISIBILITY
$$




USA.gov is the U.S. government's official web portal to all federal, state and local government web resources and services.